SCP
0 0 0 0 0 0 0 0 0 0 0 0 0 0 0 0 0 0 0 0 0 0
0 0 0 0 0 0 0 0 0 0 0 0 0 0 0 0 0 0 0 0 0 0
0 0 0 0 0 0 0 0 0 0 0 0 0 0 0 0 0 0 0 0 0 0
0 0 0 0 0 0 0 0 0 0 0 0 0 0 0 0 0 0 0 0 0 0
0 0 0 0 0 0 0 0 0 0 0 0 0 0 0 0 0 0 0 0 0 0
0 0 0 0 0 0 0 0 0 0 0 0 0 0 0 0 0 0 0 0 0 0
0 0 0 0 0 0 0 0 0 0 0 0 0 0 0 0 0 0 0 0 0 0
0 0 0 0 0 0 0 0 0 0 0 0 0 0 0 0 0 0 0 0 0 0
0 0 0 0 0 0 0 0 0 0 0 0 0 0 0 0 0 0 0 0 0 0
0 0 0 0 0 0 0 0 0 0 0 0 0 0 0 0 0 0 0 0 0 0
0 0 0 0 0 0 0 0 0 0 0 0 0 0 0 0 0 0 0 0 0 0
0 0 0 0 0 0 0 0 0 0 0 0 0 0 0 0 0 0 0 0 0 -0
0 0 0 0 0 0 0 0 0 0 0 0 0 0 0 0 0 0 0 0 0 -0
0 0 0 0 0 0 0 0 0 0 0 0 0 0 0 0 0 0 0 0 0 0
Wind_Speed_500mb
33 36 41 43 43 44 47 50 52 54 56 59 61 61 61 59 58 58 59 62 62 64
34 37 40 42 42 41 43 47 50 53 56 59 63 65 65 64 62 59 59 61 62 66
35 37 41 43 42 42 44 47 50 52 56 59 63 66 66 66 66 66 62 62 63 64
38 39 42 45 45 45 48 50 52 54 57 61 64 66 66 65 66 68 68 65 65 66
42 41 43 46 48 49 51 51 53 55 58 60 64 66 67 67 67 69 71 72 71 71
43 43 44 48 50 51 54 53 54 57 58 62 65 67 67 68 68 69 70 72 75 74
38 41 46 52 54 54 56 55 55 56 59 62 65 66 67 68 68 69 71 74 74 74
34 40 50 53 55 55 56 56 57 58 59 62 64 66 68 68 68 70 72 74 74 75
38 46 51 52 54 56 55 55 56 60 62 63 65 65 64 66 67 67 71 75 75 77
46 49 51 52 55 55 55 55 56 59 63 64 64 63 63 63 66 67 69 71 75 77
52 54 55 55 55 56 56 56 58 59 62 64 61 61 61 62 65 68 69 68 69 73
57 59 57 56 56 57 57 57 56 58 60 62 58 58 58 59 62 67 71 71 73 79
63 60 58 54 55 56 57 54 56 59 59 59 59 56 58 56 60 67 72 73 78 80
62 60 57 52 52 53 53 54 57 60 57 55 54 52 52 52 49 57 65 70 80 83
Wind_Direction_500mb
339 344 345 345 343 342 342 343 343 345 345 346 345 344 342 342 343 343 343 343 344 343
327 333 339 340 337 335 334 335 336 337 339 341 342 341 339 338 338 337 338 337 338 338
318 321 329 334 332 330 329 329 330 332 333 335 337 337 336 335 335 334 334 334 333 333
315 313 320 326 326 326 325 323 324 327 330 332 333 334 333 333 333 330 330 331 331 331
299 306 310 318 321 318 320 318 319 322 325 328 329 331 331 330 330 329 328 329 329 329
291 298 304 311 315 313 315 314 314 317 320 323 326 327 328 328 327 326 327 327 327 327
292 292 300 306 310 310 311 311 311 313 316 320 323 324 325 325 325 324 324 324 325 324
295 291 300 303 305 305 306 307 308 310 313 317 320 323 324 324 324 322 322 321 322 321
294 296 299 300 299 301 301 302 304 308 312 316 319 321 321 321 321 322 321 321 321 320
296 295 299 297 295 298 298 300 303 306 310 314 317 318 319 320 320 321 321 323 322 320
297 295 297 293 291 294 297 299 302 305 309 312 316 317 320 322 321 319 320 323 322 322
298 295 294 289 286 289 294 297 299 303 307 310 314 316 320 322 320 319 320 323 321 329
296 293 292 286 282 286 291 293 296 302 308 310 313 317 319 321 319 317 319 319 323 324
292 292 290 283 281 285 288 292 299 304 306 307 309 314 316 317 318 319 324 321 320 322
Wind_Speed_850mb
33 36 41 43 43 44 47 50 52 54 56 59 61 61 61 59 58 58 59 62 62 64
34 37 40 42 42 41 43 47 50 53 56 59 63 65 65 64 62 59 59 61 62 66
35 37 41 43 42 42 44 47 50 52 56 59 63 66 66 66 66 66 62 62 63 64
38 39 42 45 45 45 48 50 52 54 57 61 64 66 66 65 66 68 68 65 65 66
42 41 43 46 48 49 51 51 53 55 58 60 64 66 67 67 67 69 71 72 71 71
43 43 44 48 50 51 54 53 54 57 58 62 65 67 67 68 68 69 70 72 75 74
38 41 46 52 54 54 56 55 55 56 59 62 65 66 67 68 68 69 71 74 74 74
34 40 50 53 55 55 56 56 57 58 59 62 64 66 68 68 68 70 72 74 74 75
38 46 51 52 54 56 55 55 56 60 62 63 65 65 64 66 67 67 71 75 75 77
46 49 51 52 55 55 55 55 56 59 63 64 64 63 63 63 66 67 69 71 75 77
52 54 55 55 55 56 56 56 58 59 62 64 61 61 61 62 65 68 69 68 69 73
57 59 57 56 56 57 57 57 56 58 60 62 58 58 58 59 62 67 71 71 73 79
63 60 58 54 55 56 57 54 56 59 59 59 59 56 58 56 60 67 72 73 78 80
62 60 57 52 52 53 53 54 57 60 57 55 54 52 52 52 49 57 65 70 80 83
Wind_Direction_850mb
339 344 345 345 343 342 342 343 343 345 345 346 345 344 342 342 343 343 343 343 344 343
327 333 339 340 337 335 334 335 336 337 339 341 342 341 339 338 338 337 338 337 338 338
318 321 329 334 332 330 329 329 330 332 333 335 337 337 336 335 335 334 334 334 333 333
315 313 320 326 326 326 325 323 324 327 330 332 333 334 333 333 333 330 330 331 331 331
299 306 310 318 321 318 320 318 319 322 325 328 329 331 331 330 330 329 328 329 329 329
291 298 304 311 315 313 315 314 314 317 320 323 326 327 328 328 327 326 327 327 327 327
292 292 300 306 310 310 311 311 311 313 316 320 323 324 325 325 325 324 324 324 325 324
295 291 300 303 305 305 306 307 308 310 313 317 320 323 324 324 324 322 322 321 322 321
294 296 299 300 299 301 301 302 304 308 312 316 319 321 321 321 321 322 321 321 321 320
296 295 299 297 295 298 298 300 303 306 310 314 317 318 319 320 320 321 321 323 322 320
297 295 297 293 291 294 297 299 302 305 309 312 316 317 320 322 321 319 320 323 322 322
298 295 294 289 286 289 294 297 299 303 307 310 314 316 320 322 320 319 320 323 321 329
296 293 292 286 282 286 291 293 296 302 308 310 313 317 319 321 319 317 319 319 323 324
292 292 290 283 281 285 288 292 299 304 306 307 309 314 316 317 318 319 324 321 320 322